RH
32 32 31 30 28 25 22 20 19 18 17 16 15 14 14 14 15 15 15 15 17 19 21 21 21 21 21 21 24 27 28 28 28 30 31 31 31 31 32 32 31 31 31 31 32 33 35 37 39 40 39 37 33 31 32 36 36 32 31 29 29 29 29 29 28 27 27 26 25 25 25 27 27 29 32 33 34 38 43 44 44 44 45 47 47
30 29 30 30 28 26 24 22 20 19 18 18 17 15 15 14 14 14 15 15 16 18 20 20 21 22 22 21 21 24 25 27 28 29 28 29 28 29 29 31 33 33 32 32 30 31 33 34 36 37 36 35 33 31 31 33 33 32 32 32 32 33 33 33 32 31 28 25 24 23 23 24 24 26 31 33 34 36 37 38 41 44 46 47 48
29 28 28 29 28 27 26 23 21 20 19 19 18 18 17 16 15 15 15 16 16 18 19 19 19 21 22 21 21 22 23 24 25 26 25 24 24 25 26 27 29 31 32 33 31 31 32 32 32 32 32 32 31 30 29 30 30 31 33 35 36 36 36 35 34 32 28 24 22 21 22 22 21 25 32 36 35 34 35 39 42 45 46 48 50
31 28 27 28 28 28 27 25 22 21 20 19 18 19 19 18 17 17 17 17 17 18 19 19 19 20 20 20 20 21 22 22 23 23 22 22 22 22 22 23 24 26 27 28 30 30 30 30 30 30 30 30 29 29 28 27 28 28 31 35 36 36 36 36 34 32 30 25 22 21 21 20 20 25 34 38 37 36 38 41 44 45 47 50 52
32 28 27 28 29 30 28 27 24 21 20 19 19 20 20 20 20 19 18 19 18 18 20 19 19 19 19 18 17 18 19 21 22 22 21 20 20 20 20 21 22 23 23 24 26 27 27 27 27 27 27 27 27 27 27 26 26 26 27 30 33 34 35 35 34 33 32 27 22 19 19 19 20 26 36 42 42 39 40 44 47 49 51 54 57
36 31 29 28 29 30 29 27 25 21 19 19 19 20 21 21 21 21 20 20 20 20 20 20 19 18 18 17 16 16 16 17 20 21 21 19 18 18 18 19 20 22 22 23 24 24 23 24 24 25 25 24 24 24 24 24 24 24 25 25 27 29 31 32 32 31 30 26 21 19 19 20 22 27 37 46 46 42 43 46 50 54 57 60 61
42 35 33 30 29 29 29 27 25 21 19 18 18 20 21 21 21 22 21 21 22 22 21 21 21 19 18 17 16 15 15 15 17 19 19 17 16 16 16 18 20 20 21 22 23 23 22 20 20 21 22 23 23 22 22 22 23 23 23 23 24 26 27 28 29 29 27 24 21 19 20 21 24 29 39 46 45 45 49 51 52 56 62 64 62
47 43 38 34 31 29 28 27 25 23 20 19 18 18 19 20 21 22 22 22 23 23 21 21 21 20 18 17 16 16 16 16 16 17 17 16 15 15 16 16 18 20 21 21 22 22 20 18 18 18 18 19 21 21 21 21 22 23 23 23 24 25 26 26 26 25 24 22 20 20 21 23 25 31 38 43 44 47 52 56 56 58 61 63 61
51 48 45 40 35 31 30 28 27 25 23 20 19 18 18 19 21 21 22 23 23 23 23 22 23 22 19 18 18 18 18 17 16 16 17 16 16 15 15 16 16 18 19 20 21 21 20 18 16 16 16 17 18 20 20 20 20 21 22 23 23 23 23 24 25 24 22 20 19 20 22 24 26 29 34 39 43 46 52 57 58 58 59 59 57
55 52 49 45 41 37 34 31 29 27 25 22 20 19 19 19 21 21 22 22 22 23 24 24 24 23 21 19 19 19 20 19 18 17 17 17 17 16 16 16 16 17 18 18 20 21 20 18 16 15 15 15 15 17 18 19 19 20 21 22 22 22 22 23 24 23 20 19 19 21 23 25 25 27 30 35 40 46 50 52 53 56 57 55 53
59 56 55 52 47 44 41 37 33 30 27 23 21 20 19 20 20 21 21 22 23 23 24 25 25 25 23 21 20 20 20 20 19 17 16 17 18 17 17 16 16 17 16 17 19 20 19 18 16 14 13 13 13 15 16 18 19 20 21 23 23 23 22 22 22 22 19 18 20 23 24 25 25 27 30 32 36 41 44 44 47 51 53 52 51
66 62 60 57 53 50 47 43 40 36 32 28 24 21 21 20 21 21 22 22 23 24 24 25 24 25 25 24 22 20 20 19 18 17 16 16 17 17 17 17 17 17 16 16 17 19 20 19 17 15 14 13 14 17 20 21 21 22 22 23 23 23 22 21 21 21 20 20 22 25 25 26 28 28 29 32 35 38 40 42 44 47 50 52 54
73 71 66 61 58 55 52 48 44 41 37 34 29 25 23 22 22 22 22 22 23 24 24 24 25 25 26 26 24 22 20 19 18 18 16 15 16 17 18 18 17 17 16 15 17 19 20 20 19 17 15 14 16 19 21 22 22 23 23 23 23 22 22 20 19 19 21 22 25 26 25 26 28 28 30 35 38 39 41 44 45 47 50 53 55
68 72 70 65 61 58 55 51 47 44 41 38 34 29 27 25 24 24 23 23 23 23 23 23 24 25 25 26 26 24 21 19 18 18 16 15 15 16 17 18 18 17 16 14 15 18 19 19 19 19 18 17 17 17 17 18 19 20 21 22 21 20 20 19 17 18 21 23 25 27 26 26 28 30 32 36 39 41 43 45 48 49 50 51 52
60 63 64 62 60 58 56 54 51 46 43 41 38 34 31 29 28 26 26 25 24 23 23 23 23 24 25 26 26 26 23 21 19 18 17 16 16 16 17 18 18 18 16 15 14 16 18 19 19 19 19 19 20 19 19 19 21 21 21 21 20 18 17 17 16 18 20 23 26 27 27 27 29 32 35 39 42 43 44 47 48 49 50 50 48
59 59 56 56 56 55 54 55 53 49 46 43 40 38 36 33 32 31 28 27 25 24 24 24 23 23 24 25 26 26 25 23 21 19 17 17 17 18 19 19 20 19 17 16 14 14 16 18 18 19 20 20 21 21 22 22 23 23 21 20 19 17 15 15 16 17 20 22 25 27 29 30 32 36 40 44 45 46 47 48 49 49 50 48 45
59 58 56 55 54 52 51 53 53 51 49 46 43 41 39 37 36 35 33 30 28 25 24 24 24 23 23 23 24 25 25 25 23 21 18 18 18 20 20 21 21 20 18 16 15 14 14 16 17 18 19 19 19 21 23 23 23 21 19 17 17 17 15 16 17 18 20 22 25 29 31 33 36 40 43 46 47 48 49 49 48 48 48 45 43
57 56 55 55 53 51 50 51 52 52 50 48 47 45 43 40 38 37 37 34 30 27 25 25 24 23 22 22 22 23 24 24 24 23 20 19 20 20 20 21 21 20 18 17 16 15 14 15 16 18 19 18 18 20 23 24 23 21 18 16 16 16 15 16 18 19 20 24 28 32 35 37 39 42 44 46 48 48 49 48 47 47 46 43 42
53 53 54 54 54 52 51 51 51 51 50 49 48 48 47 45 42 40 39 38 36 32 29 26 24 24 23 22 21 21 22 23 23 24 23 21 21 20 20 21 21 20 18 17 16 16 15 15 17 19 18 18 19 21 22 24 24 22 19 18 17 15 14 17 20 22 24 28 32 36 39 42 44 45 45 45 46 47 48 47 46 47 47 44 43
51 54 56 55 55 53 51 49 49 49 49 50 50 50 50 49 47 45 42 41 39 38 35 31 27 25 24 23 22 21 21 22 23 24 23 23 22 21 21 21 21 19 18 17 15 14 14 14 15 18 18 18 19 21 21 22 22 22 22 21 17 14 15 19 23 26 29 32 35 39 44 46 47 47 46 46 47 49 49 48 47 48 47 45 44
54 55 55 55 55 53 50 47 47 48 49 50 50 50 51 51 51 49 47 44 43 41 39 36 33 29 26 24 24 23 21 21 21 22 23 23 22 22 22 21 19 17 17 16 14 13 13 13 13 15 17 18 18 20 20 20 20 20 22 21 17 15 17 22 26 29 31 34 37 42 47 49 49 49 48 48 49 49 49 48 48 48 47 46 46
54 54 53 52 53 53 48 46 46 47 48 49 49 50 50 51 52 52 50 48 46 44 41 39 37 35 31 28 26 25 23 21 20 20 21 21 21 21 21 19 16 15 15 15 14 13 11 11 12 14 16 17 18 19 20 19 17 16 17 19 19 19 21 23 27 30 33 36 40 44 48 48 48 48 49 48 48 48 48 49 49 47 46 46 45
51 50 50 49 50 50 47 44 44 45 46 48 48 50 51 52 52 52 51 50 48 46 44 41 40 39 37 33 29 27 25 22 21 20 19 19 19 19 19 17 15 15 15 13 12 12 11 12 13 15 16 17 19 20 20 19 17 15 14 16 19 23 25 26 28 31 34 37 40 42 44 45 45 45 46 46 46 47 48 48 48 47 47 47 47
48 46 42 41 43 45 45 43 42 43 45 46 47 48 50 50 50 51 51 51 49 48 45 44 42 42 41 39 35 30 27 24 21 20 19 19 18 17 17 16 15 15 15 14 13 13 13 15 17 18 19 20 21 21 21 20 19 17 16 18 21 26 29 31 31 33 35 37 38 39 39 39 39 39 40 40 41 43 44 45 47 47 48 50 50
45 42 38 35 34 37 39 38 39 41 43 45 46 46 48 49 49 49 50 50 49 47 46 45 44 43 42 41 38 33 29 26 23 21 20 20 19 18 18 18 17 17 17 16 16 16 17 20 23 23 24 24 24 24 25 24 23 22 23 25 29 32 35 36 37 37 38 38 36 36 36 36 37 38 38 39 40 42 44 46 49 51 53 52 49
40 38 36 33 31 32 33 34 35 37 40 42 44 45 46 48 48 49 51 51 49 46 46 46 46 45 44 41 38 34 31 29 27 24 22 21 21 20 20 21 21 21 20 19 19 21 21 24 26 27 28 28 27 26 27 28 30 30 32 34 36 39 40 41 41 41 41 40 39 38 38 38 38 38 38 40 44 47 50 53 56 57 54 50 45
38 35 34 33 31 30 30 31 32 34 37 41 43 45 45 47 49 51 51 51 49 46 45 46 47 48 45 41 35 32 30 30 29 27 25 23 22 22 21 22 24 25 24 23 22 23 24 26 28 31 32 33 32 32 32 34 37 38 38 39 41 42 43 44 45 45 44 43 42 41 41 41 41 41 44 49 52 54 57 59 60 55 50 47 46
37 35 34 33 32 29 29 30 31 32 34 38 41 44 46 47 50 50 50 51 50 47 46 46 49 50 47 41 33 30 30 31 30 27 25 23 21 22 22 23 24 25 24 23 23 24 26 29 31 33 35 36 37 38 38 39 41 42 43 44 44 45 46 46 47 47 48 48 49 50 51 51 52 54 57 60 62 61 61 60 57 50 45 46 47
33 33 32 32 32 31 30 30 31 32 33 35 38 42 45 47 50 52 52 52 51 50 49 50 52 53 49 39 32 30 30 29 26 24 21 19 18 19 19 19 21 22 23 25 26 27 28 30 33 35 37 37 38 40 41 43 45 47 49 50 51 52 52 52 53 56 58 61 63 64 63 61 61 64 64 64 63 63 61 59 55 50 46 45 46
30 29 30 31 31 31 32 33 34 34 34 34 36 39 42 45 50 53 52 51 51 52 54 55 56 55 47 37 31 29 27 26 24 21 19 17 18 18 17 18 20 22 25 28 31 31 31 32 34 36 37 37 39 41 45 49 52 54 56 58 59 58 58 60 62 63 65 69 70 68 63 62 64 66 67 64 59 56 56 54 51 50 47 44 46
30 28 28 30 30 32 34 37 39 38 38 38 38 38 41 45 50 52 50 50 51 55 58 59 57 52 44 36 33 30 28 27 26 21 17 18 19 20 20 22 24 26 29 32 35 35 35 37 39 40 40 42 45 48 51 54 58 60 62 64 64 63 64 66 67 66 66 68 68 64 60 60 63 65 64 60 55 53 54 53 51 50 50 48 50
35 34 34 35 37 41 44 48 51 52 50 48 46 42 40 43 48 51 50 49 52 57 60 60 54 46 40 35 32 29 27 26 24 21 19 21 23 24 25 27 29 32 34 36 37 38 39 42 45 46 47 49 52 55 57 60 62 64 66 68 67 67 68 68 67 66 66 65 67 67 65 64 64 61 58 56 55 55 54 52 50 52 54 54 54
42 42 44 43 42 43 44 46 51 56 58 59 56 52 47 44 46 51 52 52 54 57 57 54 46 37 33 31 28 27 26 25 23 22 22 22 25 27 29 31 33 35 37 38 39 39 42 45 47 50 53 55 57 60 62 63 64 65 66 67 68 68 69 68 66 67 66 66 67 67 65 64 61 55 52 54 58 59 56 53 54 57 59 59 58
46 46 48 47 46 45 44 44 45 48 52 54 53 52 53 53 53 54 55 56 56 55 52 49 43 36 32 31 29 29 29 28 27 25 25 25 27 28 32 35 36 37 41 45 45 44 45 47 50 52 55 57 60 63 65 67 67 67 67 67 67 67 67 67 65 64 63 64 65 64 63 64 60 53 52 56 60 61 60 59 60 61 62 63 63
49 48 48 48 48 49 50 54 56 55 52 50 48 46 49 55 59 61 61 59 55 51 51 50 47 41 38 35 34 34 34 33 33 31 30 30 31 32 35 38 40 43 48 51 51 51 51 53 56 57 59 61 64 65 66 67 66 65 65 66 66 66 67 67 65 62 60 61 64 65 67 68 63 55 54 57 59 60 61 62 61 62 64 66 65
50 49 49 49 50 50 51 54 60 60 56 53 53 51 49 51 56 62 67 65 56 48 50 54 52 47 44 42 39 38 37 36 37 37 37 37 37 37 39 42 46 51 54 53 51 55 58 59 60 63 63 65 67 66 66 65 64 62 64 63 61 62 63 62 62 61 60 62 65 68 69 67 61 56 57 59 60 60 62 63 64 64 65 66 63
52 52 51 50 51 54 58 58 58 55 52 51 53 53 52 52 53 58 65 68 61 53 51 55 54 50 48 46 43 42 41 41 40 42 43 44 45 45 46 47 51 56 58 55 56 61 63 61 62 64 65 68 69 66 66 64 62 62 64 64 63 66 67 64 64 67 69 72 73 71 68 64 56 53 55 58 58 58 60 63 64 64 62 59 55
57 58 58 55 52 54 59 60 58 54 52 52 52 51 50 51 53 54 56 59 58 54 51 54 56 53 51 50 48 47 46 46 45 45 47 49 50 51 52 54 57 60 61 60 61 64 65 64 65 66 67 68 68 65 63 62 62 65 66 64 64 68 68 65 67 71 73 74 74 71 68 64 58 53 53 54 54 57 60 60 59 56 53 50 48
56 59 61 63 62 61 60 59 58 55 54 52 52 51 48 46 48 51 50 50 53 51 48 51 55 55 54 56 56 54 53 51 50 51 52 53 55 56 57 58 59 60 60 61 62 64 64 65 66 68 67 66 64 61 58 58 61 67 70 66 63 65 66 66 69 71 71 72 72 70 68 66 61 56 55 55 56 60 65 66 62 55 49 49 51
55 55 59 63 63 61 61 61 59 58 58 56 53 51 47 42 44 51 53 51 53 53 50 50 54 57 59 61 60 60 60 59 58 60 61 60 60 59 58 57 56 57 58 59 61 63 64 64 65 66 65 63 61 59 58 58 62 67 69 68 66 67 65 65 66 67 66 68 70 69 68 66 61 56 55 55 56 60 64 65 61 55 51 53 55
55 57 62 65 63 61 62 63 62 62 65 64 59 54 50 47 52 62 65 62 61 58 54 53 55 58 61 62 61 63 64 62 60 63 65 65 63 62 60 59 58 58 59 60 60 62 64 65 65 65 64 62 62 62 62 63 65 67 68 68 66 62 58 57 60 62 64 67 69 69 70 67 60 54 53 55 57 55 54 52 52 52 54 59 59
56 59 64 69 72 73 74 73 68 65 66 66 62 58 56 57 63 71 73 71 67 62 57 55 57 60 62 62 62 66 69 67 63 63 66 68 67 65 64 63 61 59 59 59 59 61 62 63 64 66 66 67 67 67 67 66 65 64 64 62 59 56 56 59 63 64 65 69 71 69 66 61 54 50 53 57 56 50 48 49 51 54 58 60 60
59 61 65 70 73 75 77 78 76 72 69 65 61 59 61 64 69 74 77 76 73 67 62 59 60 61 62 62 62 66 71 71 68 67 67 68 69 68 67 67 64 60 58 56 56 58 58 60 62 65 68 69 69 69 68 68 67 65 62 59 56 59 64 68 68 65 62 63 64 61 57 53 50 48 50 52 50 48 49 51 52 54 56 59 58
65 66 70 71 71 71 73 75 78 79 76 67 60 61 69 73 72 74 78 79 77 73 70 66 64 62 62 64 65 67 70 72 73 73 72 71 70 70 69 68 66 63 60 59 60 60 59 61 62 64 66 68 70 70 70 70 68 66 61 58 59 63 67 68 66 63 61 61 61 58 53 50 47 46 46 48 50 53 53 53 53 54 56 57 56
75 74 73 71 71 74 75 75 78 80 79 72 66 67 74 78 77 78 80 80 78 76 74 72 72 70 68 69 71 71 71 73 76 77 75 73 72 70 68 66 65 62 60 60 60 59 59 61 63 64 64 66 69 72 72 70 66 62 60 60 62 63 63 63 62 61 60 59 57 54 52 49 48 47 49 52 55 56 55 55 56 56 55 54 52
83 85 81 76 75 76 77 79 81 83 84 81 77 75 78 80 81 83 85 82 81 81 81 80 78 76 73 72 74 74 73 73 74 73 71 69 68 67 65 64 61 58 56 57 57 56 58 61 64 64 66 68 71 72 70 66 61 59 59 61 61 60 59 59 60 59 57 55 52 51 51 52 52 52 52 54 56 57 57 58 58 56 53 51 51
83 87 87 84 81 77 76 77 81 84 85 87 85 83 84 85 85 87 88 88 87 87 85 83 80 76 73 72 72 70 68 68 67 66 65 64 63 62 62 61 59 57 59 63 66 67 67 68 67 66 67 70 71 70 66 62 60 61 61 61 60 60 60 60 61 60 60 57 55 53 53 53 54 53 53 53 56 58 58 58 56 53 51 50 51
78 82 84 84 85 82 79 78 78 80 84 88 88 88 88 88 88 90 91 90 87 84 81 80 78 75 72 69 67 65 64 63 63 62 62 62 62 62 61 61 62 63 66 72 76 76 76 75 73 72 73 74 74 71 69 67 66 66 65 63 63 64 66 66 66 65 64 61 58 56 56 57 57 57 56 57 59 60 59 59 57 56 55 56 57
77 79 81 81 82 83 82 81 79 79 82 86 89 90 90 89 89 91 90 86 83 82 80 78 76 75 73 70 66 65 65 65 65 66 67 68 68 68 68 70 73 75 77 77 77 75 75 76 76 78 80 80 78 76 75 75 74 70 67 65 66 67 68 68 68 67 64 61 60 60 60 59 59 60 63 65 65 63 62 61 60 58 57 57 55
74 75 77 78 79 81 80 79 78 78 81 84 86 88 89 88 88 89 89 86 84 84 83 81 79 78 77 75 74 73 74 73 74 74 75 78 79 78 76 78 81 81 81 80 79 78 77 79 80 81 82 82 80 80 80 79 77 74 73 72 71 69 69 71 70 68 65 64 65 66 66 66 67 71 73 72 68 65 62 60 58 55 53 52 50
72 71 72 73 76 80 82 80 77 77 80 82 82 84 88 90 91 90 90 89 86 83 82 83 83 83 81 79 79 78 77 76 76 77 78 81 84 81 79 79 82 82 82 83 83 83 83 83 84 85 85 85 84 83 82 80 79 79 80 79 77 74 73 73 71 69 68 68 67 65 66 68 70 72 70 65 61 60 58 56 53 51 51 49 48